When you browse on this site, cookies collect data to enhance your experience and personalize the content and advertising you see.
Visit our Privacy Policy to learn more. By continuing to use the site, you agree to this use of cookies and data.
  • în România
  • Lista ţărilor
  • Pe 7 zile
  • Temperatura apei
  • Meteo pe hartă
  • Widget-uri
  • user-avatar
    Intrare

    Meteo pe oră la Ngozi

    Astăzi, 28 Februarie, Vineri

    Timp Temperatura Precipitaţii Vânt Presiune Umiditate
    00:00 +18°C° 0.1 mm 1 m/s 618 mmHg 93%
    01:00 +18°C° 0.1 mm 1 m/s 618 mmHg 94%
    02:00 +16°C° 0 mm 0 m/s 617 mmHg 95%
    03:00 +16°C° 0.3 mm 0 m/s 617 mmHg 94%
    04:00 +16°C° 0.3 mm 0 m/s 617 mmHg 94%
    05:00 +16°C° 0.3 mm 0 m/s 617 mmHg 94%
    06:00 +16°C° 0.5 mm 0 m/s 618 mmHg 94%
    07:00 +17°C° 0.5 mm 0 m/s 619 mmHg 93%
    08:00 +18°C° 0 mm 0 m/s 620 mmHg 93%
    09:00 +20°C° 1 mm 1 m/s 620 mmHg 93%
    10:00 +20°C° 1 mm 1 m/s 620 mmHg 92%
    11:00 +20°C° 1 mm 1 m/s 620 mmHg 92%
    12:00 +20°C° 1.1 mm 1 m/s 619 mmHg 92%
    13:00 +20°C° 1.1 mm 1 m/s 619 mmHg 92%
    14:00 +19°C° 0 mm 1 m/s 619 mmHg 93%
    15:00 +19°C° 1.8 mm 1 m/s 618 mmHg 94%
    16:00 +18°C° 1.8 mm 1 m/s 618 mmHg 96%
    17:00 +17°C° 1.8 mm 2 m/s 618 mmHg 97%
    18:00 +16°C° 0.5 mm 1 m/s 618 mmHg 97%
    19:00 +16°C° 0.5 mm 1 m/s 618 mmHg 97%
    20:00 +16°C° 0.5 mm 1 m/s 619 mmHg 98%
    21:00 +15°C° 0 mm 1 m/s 618 mmHg 97%
    22:00 +14°C° 0 mm 0 m/s 618 mmHg 97%
    23:00 +14°C° 0 mm 0 m/s 618 mmHg 97%

    Mâine, 29 Februarie, Sâmbătă

    Timp Temperatura Precipitaţii Vânt Presiune Umiditate
    00:00 +14°C° 0 mm 0 m/s 618 mmHg 97%
    01:00 +14°C° 0 mm 0 m/s 618 mmHg 97%
    02:00 +15°C° 0 mm 1 m/s 617 mmHg 96%
    03:00 +15°C° 0 mm 1 m/s 617 mmHg 96%
    04:00 +14°C° 0 mm 0 m/s 617 mmHg 96%
    05:00 +14°C° 0 mm 0 m/s 617 mmHg 96%
    06:00 +15°C° 0 mm 0 m/s 618 mmHg 95%
    07:00 +16°C° 0 mm 0 m/s 619 mmHg 93%
    08:00 +17°C° 0 mm 0 m/s 620 mmHg 91%
    09:00 +19°C° 0.1 mm 0 m/s 620 mmHg 83%
    10:00 +21°C° 0.1 mm 0 m/s 621 mmHg 74%
    11:00 +26°C° 0.1 mm 1 m/s 621 mmHg 65%
    12:00 +26°C° 0.7 mm 1 m/s 621 mmHg 64%
    13:00 +26°C° 0.7 mm 1 m/s 620 mmHg 64%
    14:00 +26°C° 0.7 mm 1 m/s 620 mmHg 64%
    15:00 +25°C° 1.2 mm 1 m/s 619 mmHg 71%
    16:00 +23°C° 1.2 mm 0 m/s 618 mmHg 78%
    17:00 +22°C° 1.2 mm 0 m/s 617 mmHg 85%
    18:00 +20°C° 0.2 mm 0 m/s 617 mmHg 87%
    19:00 +18°C° 0.2 mm 0 m/s 617 mmHg 89%
    20:00 +16°C° 0.2 mm 0 m/s 617 mmHg 91%
    21:00 +16°C° 0 mm 0 m/s 617 mmHg 91%
    22:00 +16°C° 0 mm 0 m/s 618 mmHg 92%
    23:00 +16°C° 0 mm 1 m/s 618 mmHg 92%

    Poimâine, 1 Martie, Duminică

    Timp Temperatura Precipitaţii Vânt Presiune Umiditate
    00:00 +15°C° 0.1 mm 0 m/s 618 mmHg 92%
    01:00 +15°C° 0.1 mm 0 m/s 617 mmHg 93%
    02:00 +15°C° 0.1 mm 0 m/s 617 mmHg 93%
    03:00 +14°C° 0 mm 0 m/s 617 mmHg 93%
    04:00 +14°C° 0 mm 0 m/s 617 mmHg 93%
    05:00 +14°C° 0 mm 0 m/s 617 mmHg 93%
    06:00 +16°C° 0 mm 0 m/s 618 mmHg 91%
    07:00 +17°C° 0 mm 0 m/s 619 mmHg 89%
    08:00 +18°C° 0 mm 0 m/s 620 mmHg 87%
    09:00 +20°C° 0.6 mm 0 m/s 620 mmHg 81%
    10:00 +22°C° 0.6 mm 0 m/s 620 mmHg 75%
    11:00 +26°C° 0.6 mm 1 m/s 620 mmHg 69%
    12:00 +26°C° 0.5 mm 1 m/s 620 mmHg 65%
    13:00 +27°C° 0.5 mm 1 m/s 619 mmHg 61%
    14:00 +27°C° 0.5 mm 1 m/s 619 mmHg 56%
    15:00 +26°C° 0.4 mm 1 m/s 618 mmHg 63%
    16:00 +25°C° 0.4 mm 1 m/s 618 mmHg 70%
    17:00 +24°C° 0.4 mm 1 m/s 617 mmHg 77%
    18:00 +23°C° 0.9 mm 1 m/s 617 mmHg 82%
    19:00 +21°C° 0.9 mm 1 m/s 617 mmHg 86%
    20:00 +19°C° 0.9 mm 1 m/s 617 mmHg 91%
    21:00 +19°C° 0.8 mm 1 m/s 618 mmHg 92%
    22:00 +18°C° 0.8 mm 1 m/s 618 mmHg 92%
    23:00 +18°C° 0.8 mm 1 m/s 618 mmHg 93%

    2 Martie, Luni

    Timp Temperatura Precipitaţii Vânt Presiune Umiditate
    00:00 +16°C° 0.6 mm 0 m/s 618 mmHg 94%
    01:00 +16°C° 0.6 mm 0 m/s 618 mmHg 94%
    02:00 +15°C° 0.6 mm 0 m/s 617 mmHg 94%
    03:00 +15°C° 0.9 mm 0 m/s 617 mmHg 95%
    04:00 +16°C° 0.9 mm 0 m/s 618 mmHg 95%
    05:00 +16°C° 0.9 mm 0 m/s 618 mmHg 96%
    06:00 +16°C° 1.1 mm 0 m/s 618 mmHg 95%
    07:00 +16°C° 1.1 mm 0 m/s 619 mmHg 95%
    08:00 +16°C° 1.1 mm 0 m/s 619 mmHg 95%
    09:00 +19°C° 0.6 mm 1 m/s 619 mmHg 94%
    10:00 +19°C° 0.6 mm 1 m/s 619 mmHg 92%
    11:00 +19°C° 0.6 mm 2 m/s 619 mmHg 91%
    12:00 +20°C° 0.7 mm 2 m/s 619 mmHg 87%
    13:00 +21°C° 0.7 mm 2 m/s 619 mmHg 83%
    14:00 +23°C° 0.7 mm 1 m/s 619 mmHg 79%
    15:00 +22°C° 0.8 mm 1 m/s 619 mmHg 82%
    16:00 +22°C° 0.8 mm 1 m/s 619 mmHg 85%
    17:00 +22°C° 0.8 mm 1 m/s 619 mmHg 88%
    18:00 +21°C° 0.3 mm 1 m/s 619 mmHg 90%
    19:00 +19°C° 0.3 mm 1 m/s 619 mmHg 92%
    20:00 +18°C° 0.3 mm 1 m/s 619 mmHg 94%
    21:00 +18°C° 0 mm 1 m/s 619 mmHg 94%
    22:00 +18°C° 0 mm 1 m/s 619 mmHg 94%
    23:00 +16°C° 0 mm 1 m/s 619 mmHg 94%

    3 Martie, Marţi

    Timp Temperatura Precipitaţii Vânt Presiune Umiditate
    00:00 +16°C° 0 mm 1 m/s 619 mmHg 94%
    01:00 +16°C° 0 mm 1 m/s 618 mmHg 94%
    02:00 +16°C° 0 mm 1 m/s 618 mmHg 94%
    03:00 +16°C° 0 mm 1 m/s 618 mmHg 94%
    04:00 +15°C° 0 mm 0 m/s 618 mmHg 94%
    05:00 +15°C° 0 mm 0 m/s 618 mmHg 93%
    06:00 +15°C° 0 mm 0 m/s 619 mmHg 92%
    07:00 +16°C° 0 mm 0 m/s 619 mmHg 91%
    08:00 +17°C° 0 mm 0 m/s 620 mmHg 90%
    09:00 +19°C° 0.1 mm 0 m/s 621 mmHg 80%
    10:00 +22°C° 0.1 mm 0 m/s 622 mmHg 71%
    11:00 +25°C° 0.1 mm 0 m/s 623 mmHg 62%
    12:00 +25°C° 0.3 mm 0 m/s 622 mmHg 61%
    13:00 +24°C° 0.3 mm 0 m/s 621 mmHg 60%
    14:00 +24°C° 0.3 mm 0 m/s 620 mmHg 59%
    15:00 +23°C° 0.5 mm 0 m/s 619 mmHg 67%
    16:00 +24°C° 0.5 mm 1 m/s 619 mmHg 75%
    17:00 +23°C° 0.5 mm 1 m/s 619 mmHg 83%
    18:00 +21°C° 0.3 mm 1 m/s 619 mmHg 85%
    19:00 +18°C° 0.3 mm 0 m/s 619 mmHg 87%
    20:00 +16°C° 0.3 mm 0 m/s 619 mmHg 89%
    21:00 +16°C° 0.1 mm 0 m/s 619 mmHg 90%
    22:00 +16°C° 0.1 mm 0 m/s 619 mmHg 90%
    23:00 +16°C° 0.1 mm 0 m/s 619 mmHg 91%

    4 Martie, Miercuri

    Timp Temperatura Precipitaţii Vânt Presiune Umiditate
    00:00 +15°C° 0.2 mm 0 m/s 619 mmHg 92%
    01:00 +15°C° 0.2 mm 0 m/s 618 mmHg 92%
    02:00 +15°C° 0.2 mm 0 m/s 618 mmHg 93%
    03:00 +15°C° 0.3 mm 0 m/s 618 mmHg 93%
    04:00 +15°C° 0.3 mm 0 m/s 618 mmHg 93%
    05:00 +15°C° 0.3 mm 0 m/s 618 mmHg 93%
    06:00 +16°C° 0.2 mm 0 m/s 619 mmHg 92%
    07:00 +16°C° 0.2 mm 0 m/s 620 mmHg 91%
    08:00 +17°C° 0.2 mm 0 m/s 620 mmHg 90%
    09:00 +19°C° 0.3 mm 0 m/s 621 mmHg 84%
    10:00 +21°C° 0.3 mm 0 m/s 621 mmHg 78%
    11:00 +25°C° 0.3 mm 1 m/s 622 mmHg 72%
    12:00 +24°C° 1.4 mm 1 m/s 621 mmHg 73%
    13:00 +22°C° 1.4 mm 0 m/s 620 mmHg 74%
    14:00 +22°C° 1.4 mm 0 m/s 619 mmHg 75%
    15:00 +21°C° 0.7 mm 0 m/s 619 mmHg 80%
    16:00 +21°C° 0.7 mm 1 m/s 618 mmHg 85%
    17:00 +19°C° 0.7 mm 1 m/s 618 mmHg 91%
    18:00 +18°C° 0 mm 1 m/s 618 mmHg 90%
    19:00 +18°C° 0 mm 1 m/s 618 mmHg 90%
    20:00 +16°C° 0 mm 1 m/s 618 mmHg 90%
    21:00 +16°C° 0 mm 1 m/s 619 mmHg 90%
    22:00 +15°C° 0 mm 0 m/s 619 mmHg 90%
    23:00 +16°C° 0 mm 0 m/s 619 mmHg 90%
    Arată mai mult